Sioux Falls, SD

7:28 AM CST on February 24, 2017 (GMT -0600)
Foss

Weather History for KFSD - September, 2013

Change the Weather History Date:

Tuesday, September 3, 2013

  Actual Average Record
Temperature  
Mean Temperature 68 °F 66 °F  
Max Temperature 83 °F 78 °F 97 °F (1913)
Min Temperature 52 °F 55 °F 31 °F (1974)
Degree Days  
Heating Degree Days 0 2  
Month to date heating degree days 1 6  
Since 1 July heating degree days 35 37  
Cooling Degree Days 3 4  
Month to date cooling degree days 5 12  
Year to date cooling degree days 659 637  
Growing Degree Days 17 (Base 50)    
Moisture  
Dew Point 60 °F    
Average Humidity 74    
Maximum Humidity 93    
Minimum Humidity 54    
Precipitation  
Precipitation 0.00 in 0.09 in 2.40 in (1911)
Month to date precipitation 0.00 0.29  
Year to date precipitation 20.42 19.68  
Snow  
Snow 0.00 in 0.00 in 0.00 in ()
Month to date snowfall 0.0 0.0  
Since 1 July snowfall 0.0 0.0  
Since 1 September snowfall 0.0 0.0  
Snow Depth 0.00 in    
Sea Level Pressure  
Sea Level Pressure 30.02 in    
Wind  
Wind Speed 7 mph (South)    
Max Wind Speed 17 mph    
Max Gust Speed 21 mph    
Visibility 10 miles    
Events      
T = Trace of Precipitation, MM = Missing Value Source: NWS Daily Summary

Daily Weather History Graph

Daily Weather History Graph

Search for Another Location

Airport or City:

Trip Planner

Search our weather history database for the weather conditions in past years. The results will help you decide how hot, cold, wet, or windy it might be!

Date:

Astronomy

Sep. 03, 2013 Rise Set
Actual Time 6:53 AM CDT 7:58 PM CDT
Civil Twilight 6:23 AM CDT 8:27 PM CDT
Nautical Twilight 5:48 AM CDT 9:02 PM CDT
Astronomical Twilight 5:11 AM CDT 9:39 PM CDT
Moon 5:06 AM CDT (9/3) 6:46 PM CDT (9/3)
Length of Visible Light 14h 03m
Length of Day
13h 05m
Waning Crescent, 3% of the Moon is Illuminated
Sep 3
Waning Crescent
Sep 5
New
Sep 12
First Quarter
Sep 19
Full
Sep 26
Last Quarter

Hourly Weather History & Observations

Time (CDT) Temp. Heat Index Dew Point Humidity Pressure Visibility Wind Dir Wind Speed Gust Speed Precip Events Conditions
12:56 AM 57.0 °F - 52.0 °F 83% 30.04 in 10.0 mi East 3.5 mph - N/A   Clear
1:56 AM 55.9 °F - 52.0 °F 87% 30.04 in 10.0 mi Variable 3.5 mph - N/A   Clear
2:56 AM 55.9 °F - 52.0 °F 87% 30.05 in 10.0 mi Calm Calm - N/A   Clear
3:56 AM 57.0 °F - 52.0 °F 83% 30.06 in 10.0 mi ESE 4.6 mph - N/A   Clear
4:56 AM 54.0 °F - 51.1 °F 90% 30.06 in 10.0 mi Calm Calm - N/A   Clear
5:56 AM 54.0 °F - 51.1 °F 90% 30.06 in 10.0 mi Calm Calm - N/A   Clear
6:56 AM 57.0 °F - 52.0 °F 83% 30.07 in 10.0 mi SSE 4.6 mph - N/A   Partly Cloudy
7:56 AM 60.1 °F - 54.0 °F 80% 30.07 in 10.0 mi SSE 4.6 mph - N/A   Partly Cloudy
8:56 AM 64.9 °F - 54.0 °F 68% 30.06 in 10.0 mi South 10.4 mph - N/A   Partly Cloudy
9:56 AM 68.0 °F - 55.9 °F 65% 30.07 in 10.0 mi South 9.2 mph - N/A   Partly Cloudy
10:56 AM 73.0 °F - 57.0 °F 57% 30.05 in 10.0 mi SSE 11.5 mph - N/A   Partly Cloudy
11:56 AM 75.9 °F - 61.0 °F 60% 30.04 in 10.0 mi SSE 10.4 mph - N/A   Partly Cloudy
12:56 PM 79.0 °F - 63.0 °F 58% 30.02 in 10.0 mi SSE 11.5 mph - N/A   Scattered Clouds
1:56 PM 81.0 °F 82.2 °F 63.0 °F 54% 30.01 in 10.0 mi SSE 13.8 mph - N/A   Scattered Clouds
2:56 PM 82.0 °F 83.8 °F 64.9 °F 56% 29.99 in 10.0 mi South 13.8 mph - N/A   Mostly Cloudy
3:56 PM 82.0 °F 84.1 °F 66.0 °F 58% 29.99 in 10.0 mi SSW 9.2 mph - N/A   Mostly Cloudy
4:56 PM 81.0 °F 82.7 °F 64.9 °F 58% 29.99 in 10.0 mi SSW 10.4 mph - N/A   Mostly Cloudy
5:56 PM 81.0 °F 83.0 °F 66.0 °F 60% 29.99 in 10.0 mi SSW 10.4 mph - N/A   Mostly Cloudy
6:56 PM 78.1 °F - 66.0 °F 66% 29.98 in 10.0 mi South 10.4 mph - N/A   Mostly Cloudy
7:56 PM 75.9 °F - 66.0 °F 71% 29.98 in 10.0 mi South 6.9 mph - N/A   Mostly Cloudy
8:56 PM 75.9 °F - 66.0 °F 71% 29.99 in 10.0 mi SSE 6.9 mph - N/A   Mostly Cloudy
9:56 PM 73.0 °F - 66.0 °F 79% 29.99 in 10.0 mi South 9.2 mph - N/A   Mostly Cloudy
10:56 PM 71.1 °F - 66.0 °F 84% 30.00 in 10.0 mi Calm Calm - N/A   Scattered Clouds
11:56 PM 71.1 °F - 64.9 °F 81% 30.00 in 10.0 mi South 6.9 mph - N/A   Scattered Clouds